SCP
0 0 0 0 0 0 0 0 0 0 0 0 0 0 0 0 0 0 0 0 0 0
0 0 0 0 0 0 0 0 0 0 0 0 0 0 0 0 0 0 0 0 0 0
0 0 0 0 0 0 0 0 0 0 0 0 0 0 0 0 0 0 0 0 0 0
0 0 0 0 0 0 0 0 0 0 0 0 0 0 0 0 0 0 0 0 0 0
0 0 0 0 0 0 0 0 0 0 0 0 0 0 0 0 0 0 0 0 0 0
0 0 0 0 0 0 0 0 0 0 0 0 0 0 0 0 0 0 0 0 0 0
0 0 0 0 0 0 0 0 0 0 0 0 0 0 0 0 0 0 0 0 0 0
0 0 0 0 0 0 0 0 0 0 0 0 0 0 0 0 0 0 0 0 0 0
0 0 0 0 0 0 0 0 0 0 0 0 0 0 0 0 0 0 0 0 0 0
0 0 0 0 0 0 0 0 0 0 0 0 0 0 0 0 0 0 0 0 0 0
0 0 0 0 0 0 0 0 0 0 0 0 0 0 0 0 0 0 0 0 0 0
0 0 0 0 0 0 0 0 0 0 0 0 0 0 0 0 0 0 0 0 0 0
0 0 0 0 0 0 0 0 0 0 0 0 0 0 -0 0 -0 -0 0 -0 0 0
0 0 0 0 0 0 0 0 0 0 0 0 0 0 0 -0 0 -0 -0 -0 -0 0
Wind_Speed_500mb
40 39 40 42 45 48 50 53 53 55 58 60 61 59 59 63 68 70 76 72 75 74
21 25 27 29 33 39 42 45 49 54 59 62 64 64 62 65 68 71 74 77 76 77
15 18 20 22 25 30 34 37 41 45 48 53 60 64 65 68 68 70 75 78 80 80
12 18 25 29 32 37 40 43 45 47 51 53 54 56 60 68 71 74 77 77 79 82
10 11 14 20 24 30 36 41 47 51 52 54 56 57 62 64 68 72 76 79 79 82
24 26 26 27 30 32 34 35 37 43 50 55 55 54 55 65 71 73 77 79 81 84
17 18 19 25 28 31 36 40 41 40 42 46 52 56 56 56 65 75 81 84 86 86
25 27 27 29 31 31 33 36 39 42 41 43 43 44 52 57 64 66 74 79 83 87
27 28 31 33 37 37 37 37 38 41 44 45 47 46 45 51 61 68 77 79 79 84
25 27 28 30 32 35 38 40 42 44 47 48 49 50 50 52 56 62 68 75 81 83
20 19 20 23 28 30 33 37 42 46 48 51 52 54 54 55 57 59 61 64 71 81
29 29 31 31 33 35 39 42 44 47 50 53 54 54 54 59 62 63 64 65 62 62
29 32 33 35 36 38 42 45 47 47 49 50 53 54 59 59 63 69 72 74 70 67
29 33 36 38 41 44 46 50 51 54 54 53 56 55 54 57 60 65 72 77 81 76
Wind_Direction_500mb
262 266 265 264 264 265 268 271 273 272 272 274 276 275 275 273 272 272 272 270 271 273
282 277 273 273 272 274 276 280 282 282 283 282 280 278 276 273 272 274 274 274 271 267
288 285 283 281 279 280 282 282 282 282 283 283 283 280 276 275 275 274 274 274 272 269
298 294 288 284 281 280 281 281 281 284 286 285 284 281 277 275 276 276 275 273 273 273
326 313 310 306 302 297 292 286 284 283 280 282 284 283 279 275 273 275 276 276 275 275
298 297 299 299 298 301 305 308 303 294 288 285 282 279 277 280 279 277 276 277 276 275
292 303 309 311 308 308 307 307 308 310 310 301 291 286 280 273 275 276 276 277 275 274
317 317 321 321 321 319 318 318 318 315 313 316 314 303 289 281 272 266 270 272 270 273
306 310 311 313 313 315 317 321 325 326 326 323 319 319 311 292 283 278 271 267 269 273
313 319 318 317 318 324 326 328 327 328 331 332 333 326 318 314 300 285 280 275 269 267
313 315 317 322 320 325 330 333 337 339 334 330 333 336 331 321 313 303 292 284 275 269
318 319 321 320 319 326 328 332 331 331 331 336 340 338 338 334 326 317 310 303 296 288
303 310 316 320 321 327 327 326 325 328 332 336 336 340 345 340 336 328 323 320 315 312
309 312 314 319 324 324 322 321 322 321 325 329 332 337 339 338 336 335 330 323 320 317
Wind_Speed_850mb
40 39 40 42 45 48 50 53 53 55 58 60 61 59 59 63 68 70 76 72 75 74
21 25 27 29 33 39 42 45 49 54 59 62 64 64 62 65 68 71 74 77 76 77
15 18 20 22 25 30 34 37 41 45 48 53 60 64 65 68 68 70 75 78 80 80
12 18 25 29 32 37 40 43 45 47 51 53 54 56 60 68 71 74 77 77 79 82
10 11 14 20 24 30 36 41 47 51 52 54 56 57 62 64 68 72 76 79 79 82
24 26 26 27 30 32 34 35 37 43 50 55 55 54 55 65 71 73 77 79 81 84
17 18 19 25 28 31 36 40 41 40 42 46 52 56 56 56 65 75 81 84 86 86
25 27 27 29 31 31 33 36 39 42 41 43 43 44 52 57 64 66 74 79 83 87
27 28 31 33 37 37 37 37 38 41 44 45 47 46 45 51 61 68 77 79 79 84
25 27 28 30 32 35 38 40 42 44 47 48 49 50 50 52 56 62 68 75 81 83
20 19 20 23 28 30 33 37 42 46 48 51 52 54 54 55 57 59 61 64 71 81
29 29 31 31 33 35 39 42 44 47 50 53 54 54 54 59 62 63 64 65 62 62
29 32 33 35 36 38 42 45 47 47 49 50 53 54 59 59 63 69 72 74 70 67
29 33 36 38 41 44 46 50 51 54 54 53 56 55 54 57 60 65 72 77 81 76
Wind_Direction_850mb
262 266 265 264 264 265 268 271 273 272 272 274 276 275 275 273 272 272 272 270 271 273
282 277 273 273 272 274 276 280 282 282 283 282 280 278 276 273 272 274 274 274 271 267
288 285 283 281 279 280 282 282 282 282 283 283 283 280 276 275 275 274 274 274 272 269
298 294 288 284 281 280 281 281 281 284 286 285 284 281 277 275 276 276 275 273 273 273
326 313 310 306 302 297 292 286 284 283 280 282 284 283 279 275 273 275 276 276 275 275
298 297 299 299 298 301 305 308 303 294 288 285 282 279 277 280 279 277 276 277 276 275
292 303 309 311 308 308 307 307 308 310 310 301 291 286 280 273 275 276 276 277 275 274
317 317 321 321 321 319 318 318 318 315 313 316 314 303 289 281 272 266 270 272 270 273
306 310 311 313 313 315 317 321 325 326 326 323 319 319 311 292 283 278 271 267 269 273
313 319 318 317 318 324 326 328 327 328 331 332 333 326 318 314 300 285 280 275 269 267
313 315 317 322 320 325 330 333 337 339 334 330 333 336 331 321 313 303 292 284 275 269
318 319 321 320 319 326 328 332 331 331 331 336 340 338 338 334 326 317 310 303 296 288
303 310 316 320 321 327 327 326 325 328 332 336 336 340 345 340 336 328 323 320 315 312
309 312 314 319 324 324 322 321 322 321 325 329 332 337 339 338 336 335 330 323 320 317